Weather History for Spencer, IA

Change the Weather History Date:

Monday, January 7, 2013

  Actual Average Record
Temperature  
Mean Temperature 24 °F -  
Max Temperature 33 °F 19 °F 55 °F (2003)
Min Temperature 12 °F -2 °F -24 °F (1988)
Degree Days  
Heating Degree Days 42    
Moisture  
Dew Point 18 °F    
Average Humidity 78    
Maximum Humidity 93    
Minimum Humidity 66    
Precipitation  
Precipitation 0.02 in - - ()
Sea Level Pressure  
Sea Level Pressure 30.01 in    
Wind  
Wind Speed 10 mph (SW)    
Max Wind Speed 20 mph    
Max Gust Speed -    
Visibility 6 miles    
Events Fog    
Averages and records for this station are not official NWS values.
T = Trace of Precipitation, MM = Missing Value Source: NWS Daily Summary

Daily Weather History Graph

Daily Weather History Graph

Search for Another Location

Airport:

Trip Planner

Search our weather history database for the weather conditions in past years. The results will help you decide how hot, cold, wet, or windy it might be!

Date:

Astronomy

Jan. 07, 2013 Rise Set
Actual Time 7:52 AM CST 5:02 PM CST
Civil Twilight 7:20 AM CST 5:34 PM CST
Nautical Twilight 6:44 AM CST 6:10 PM CST
Astronomical Twilight 6:10 AM CST 6:44 PM CST
Moon 3:15 AM CST (1/7) 1:15 PM CST (1/7)
Length of Visible Light 10h 14m
Length of Day
9h 10m
Waning Crescent, 22% of the Moon is Illuminated
Jan 7
Waning Crescent
Jan 11
New
Jan 18
First Quarter
Jan 26
Full
Feb 3
Last Quarter

Hourly Weather History & Observations

Time (CST) Temp. Windchill Dew Point Humidity Pressure Visibility Wind Dir Wind Speed Gust Speed Precip Events Conditions
12:53 AM 19.9 °F 7.9 °F 15.1 °F 81% 30.06 in 10.0 mi South 11.5 mph - N/A   Clear
1:53 AM 24.1 °F 14.4 °F 17.1 °F 75% 30.02 in 10.0 mi South 9.2 mph - N/A   Clear
2:53 AM 30.0 °F 18.3 °F 21.0 °F 69% 30.00 in 10.0 mi SSW 17.3 mph - N/A   Clear
3:53 AM 30.0 °F 20.0 °F 19.9 °F 66% 30.01 in 10.0 mi SSW 12.7 mph - N/A   Clear
4:53 AM 26.1 °F 17.6 °F 19.0 °F 75% 29.99 in 10.0 mi South 8.1 mph - N/A   Clear
5:53 AM 26.1 °F 16.2 °F 19.0 °F 75% 29.98 in 10.0 mi SSW 10.4 mph - N/A   Clear
6:53 AM 30.9 °F 18.7 °F 21.9 °F 69% 29.99 in 10.0 mi SW 19.6 mph - N/A   Clear
7:53 AM 28.9 °F 17.7 °F 21.0 °F 72% 29.99 in 10.0 mi SW 15.0 mph - N/A   Clear
8:53 AM 28.9 °F 17.3 °F 21.0 °F 72% 30.01 in 10.0 mi SW 16.1 mph - N/A   Clear
9:53 AM 28.9 °F 18.6 °F 21.9 °F 75% 30.04 in 10.0 mi SW 12.7 mph - N/A   Clear
10:53 AM 30.9 °F 20.2 °F 24.1 °F 76% 30.05 in 10.0 mi West 15.0 mph - N/A   Clear
11:53 AM 30.9 °F 22.2 °F 25.0 °F 79% 30.02 in 10.0 mi West 10.4 mph - 0.01 in   Clear
12:53 PM 32.0 °F 23.6 °F 26.1 °F 79% 30.00 in 10.0 mi WSW 10.4 mph - 0.01 in   Clear
1:53 PM 33.1 °F 26.1 °F 26.1 °F 75% 30.00 in 10.0 mi WSW 8.1 mph - N/A   Clear
2:53 PM 32.0 °F 24.8 °F 26.1 °F 79% 30.01 in 10.0 mi WSW 8.1 mph - N/A   Clear
3:53 PM 32.0 °F 24.8 °F 25.0 °F 75% 30.01 in 10.0 mi WSW 8.1 mph - N/A   Clear
5:53 PM 25.0 °F 20.7 °F 21.9 °F 88% 30.04 in 10.0 mi West 3.5 mph - N/A   Clear
6:53 PM 21.9 °F 17.2 °F 18.0 °F 85% 30.04 in 4.0 mi South 3.5 mph - N/A   Clear
7:03 PM 21.2 °F - 17.6 °F 86% 29.99 in 1.8 mi Calm Calm - N/A   Clear
7:23 PM 19.4 °F - 17.6 °F 93% 29.99 in 0.5 mi Calm Calm - N/A Fog Light Freezing Fog
7:39 PM 19.4 °F - 15.8 °F 86% 29.99 in 0.2 mi Calm Calm - N/A Fog Light Freezing Fog
7:53 PM 16.0 °F - 12.9 °F 88% 30.05 in 0.2 mi Calm Calm - N/A Fog Light Freezing Fog
8:53 PM 16.0 °F 10.4 °F 10.9 °F 81% 30.04 in 0.2 mi West 3.5 mph - N/A   Haze
9:53 PM 15.1 °F 9.4 °F 8.1 °F 74% 30.04 in 0.5 mi SW 3.5 mph - N/A   Haze
10:03 PM 15.8 °F - 8.6 °F 73% 29.97 in 2.0 mi Calm Calm - N/A   Haze
10:20 PM 14.0 °F - 6.8 °F 73% 29.98 in 0.2 mi Calm Calm - N/A   Haze
10:53 PM 15.1 °F 7.7 °F 9.0 °F 77% 30.03 in 0.2 mi North 4.6 mph - N/A   Haze
11:53 PM 12.9 °F 6.9 °F 7.0 °F 77% 30.02 in 0.2 mi WNW 3.5 mph - N/A   Haze